Home > Weather > Cadiz > Past weeks

Flag for Spain Past Weather in Cadiz, Cádiz, Spain — Yesterday and Last 2 Weeks

Now
77 °F

Passing clouds.


Feels Like: 79 °F
Forecast: 72 / 91 °F
Wind: 8 mph from Southwest

Location: Rota Airport

Current Time: Jul 28, 2016 at 2:41:19 PM

Latest Report: Jul 28, 2016 at 2:00 PM


Visibility: N/A

Pressure: 30.01 "Hg

Humidity: 74%

Dew Point: 68 °F

Location of CadizLocation

Past Weather in Cadiz — Graph

°F

Cadiz Temperature Yesterday

Maximum temperature yesterday: 79 °F (at 12:00 AM)
Minimum temperature yesterday: 73 °F (at 6:00 AM)
Average temperature yesterday: 75 °F

High & Low Weather Summary for the Past Weeks

 TemperatureHumidityPressure
High97 °F (Jul 25, 3:00 PM)94% (Jul 21, 4:00 AM)30.07 "Hg (Jul 21, 4:00 AM)
Low66 °F (Jul 21, 8:00 AM)23% (Jul 17, 4:00 PM)29.89 "Hg (Jul 18, 7:00 PM)
Average80 °F56%29.97 "Hg
* Reported Jul 13 1:00 PM — Jul 28 1:00 PM, Cadiz, Weather by CustomWeather, © 2016

Note: Actual official high and low records may vary slightly from our data, if they occured in-between our weather recording intervals... More about our weather records

Advertising

Cadiz Weather History for the Previous 24 Hours

Scroll right to see more
 ConditionsComfort  
Time TempWeatherWind HumidityBarometerVisibility
1:00 PM
Thu, Jul 28
77 °FPassing clouds.6 mph74%30.01 "HgN/A
12:00 PM75 °FPassing clouds.5 mph78%30.01 "HgN/A
11:00 AM75 °FPassing clouds.5 mph78%30.01 "HgN/A
10:00 AM73 °FPartly sunny.7 mph83%30.01 "HgN/A
9:00 AM72 °FLow clouds.7 mph88%30.01 "Hg6 mi
8:00 AM70 °FPassing clouds.8 mph94%30.01 "Hg5 mi
7:00 AM70 °FPassing clouds.6 mph88%29.98 "Hg5 mi
6:00 AM72 °FPassing clouds.8 mph88%29.98 "Hg5 mi
4:00 AM72 °FPassing clouds.7 mph88%30.01 "Hg5 mi
3:00 AM72 °FPassing clouds.6 mph88%30.01 "Hg5 mi
2:00 AM72 °FPassing clouds.7 mph94%30.01 "Hg5 mi
1:00 AM72 °FPassing clouds.5 mph94%30.01 "Hg5 mi
11:00 PM
Wed, Jul 27
73 °FClear.5 mph89%29.98 "Hg10 mi
10:00 PM73 °FSunny.6 mph89%29.98 "Hg10 mi
9:00 PM75 °FSunny.8 mph83%29.98 "Hg10 mi
8:00 PM77 °FPassing clouds.9 mph79%29.98 "HgN/A
7:00 PM77 °FPassing clouds.10 mph83%29.98 "HgN/A
6:00 PM77 °FPassing clouds.9 mph79%30.01 "HgN/A
5:00 PM77 °FPassing clouds.9 mph79%30.01 "HgN/A
4:00 PM77 °FPassing clouds.9 mph79%30.04 "HgN/A
3:00 PM77 °FPassing clouds.8 mph79%30.04 "HgN/A
2:00 PM77 °FScattered clouds.9 mph79%30.04 "HgN/A
Weather by CustomWeather, © 2016

See weather overviewHow to use our weather pages